Wind_Speed
26 26 27 28 28 28 28 27 27 27 26 26 26 26 25 25 26 26 26 27 27 27 28 29 29 28 29 29 29 29 30 30 30 30 31 31 31 31 32 33 33 33 33
26 27 27 27 26 26 26 26 26 26 26 25 25 25 25 25 25 25 26 26 26 27 27 27 27 28 28 29 29 29 29 29 30 30 31 32 32 31 32 32 33 32 32
26 26 26 26 25 25 25 25 25 25 25 25 25 25 25 25 25 25 25 25 26 25 25 26 26 26 27 27 27 28 28 28 28 29 30 30 30 30 30 31 30 30 30
26 26 25 25 25 24 24 24 23 23 24 24 24 24 24 24 24 24 24 24 23 23 23 23 23 23 24 26 26 26 26 27 27 28 28 28 28 29 29 29 29 29 28
26 25 25 24 24 23 22 22 22 22 23 23 23 23 23 23 23 23 23 22 21 21 20 20 21 21 22 23 24 24 24 24 25 25 25 25 26 25 25 25 26 26 25
25 24 23 22 21 21 20 20 20 20 21 21 22 22 21 21 21 21 20 19 19 18 18 18 18 19 20 20 20 20 21 21 21 22 22 21 21 21 21 21 21 22 23
22 21 20 20 19 18 18 18 18 18 19 20 20 20 20 20 19 18 18 17 17 16 16 16 16 16 16 16 16 17 17 17 17 17 18 17 17 17 18 18 18 18 19
20 19 18 18 17 16 16 16 16 16 17 17 17 18 17 16 16 15 15 15 14 14 13 13 12 12 13 13 13 13 13 14 14 14 15 14 14 14 15 16 16 17 17
17 16 16 15 15 14 14 14 15 15 14 15 14 14 14 13 12 11 12 12 11 10 10 10 10 10 10 10 10 10 11 11 11 11 11 11 12 13 13 14 14 14 15
14 14 14 13 13 12 12 13 13 13 12 12 11 11 10 9 8 7 8 7 7 7 7 6 6 7 7 7 6 7 7 7 8 9 9 9 9 9 10 10 11 12 12
13 13 12 12 11 11 11 10 10 9 8 8 7 7 6 6 4 3 3 4 3 3 3 3 2 3 3 4 5 5 5 5 6 6 6 6 6 6 7 8 9 10 10
12 11 11 10 10 9 9 8 8 6 5 5 5 4 4 3 2 2 1 1 2 1 2 2 3 4 5 5 5 4 3 3 3 3 3 2 3 3 4 5 6 7 7
10 10 9 9 8 8 7 7 6 5 5 5 4 4 3 3 4 3 4 5 5 5 5 6 7 8 7 6 6 5 4 4 4 3 2 1 1 0 2 2 3 4 5
9 9 9 8 8 8 8 7 7 7 7 7 7 7 7 7 7 7 8 8 8 8 9 9 9 9 9 9 8 7 6 6 6 5 5 4 3 2 2 2 2 3 3
9 9 9 9 10 10 10 10 10 10 10 10 9 10 10 10 10 10 10 10 10 11 10 11 10 10 11 10 9 9 9 9 8 7 6 5 5 4 4 4 4 3 3
9 10 10 11 11 12 12 12 12 12 12 11 11 12 12 12 12 12 12 12 11 12 12 11 11 12 12 12 11 10 10 9 8 7 6 6 5 5 5 5 5 5 4
11 11 12 12 12 13 13 13 14 14 14 13 14 14 15 15 15 15 15 14 14 14 13 13 12 12 12 11 10 9 8 8 7 7 6 6 6 6 6 5 5 5 6
12 13 13 13 14 14 14 15 15 16 16 16 16 16 16 16 16 16 15 15 15 14 14 14 13 13 12 11 10 9 9 8 8 8 7 7 7 6 6 6 6 7 7
13 14 14 14 15 15 15 16 16 17 17 18 17 17 17 16 16 16 16 16 16 16 15 14 13 12 11 11 10 10 10 9 9 9 8 8 7 7 7 7 7 7 8
13 14 14 15 15 16 16 16 16 17 17 18 18 18 18 17 17 17 17 17 16 16 15 14 13 12 12 11 10 10 9 9 9 9 9 8 8 8 8 8 8 9 9
13 13 14 14 15 15 15 16 16 17 17 17 17 17 18 18 17 17 16 16 15 14 13 13 12 12 12 11 10 10 10 9 9 10 10 10 10 10 10 10 10 11 11
13 13 13 14 14 14 15 16 16 16 17 17 16 16 17 17 17 16 15 14 13 12 12 11 11 11 11 10 10 10 10 10 10 10 10 10 10 11 11 12 12 13 14
12 12 12 13 13 14 14 14 15 15 14 14 14 14 14 14 14 13 13 12 12 12 11 11 10 10 10 10 10 10 10 10 10 11 11 12 12 13 13 14 14 15 16
10 11 11 12 12 12 12 13 12 12 12 12 12 13 12 12 12 12 12 11 11 11 11 11 10 10 10 10 10 10 10 10 11 12 13 14 14 15 15 16 17 18 18
9 9 9 10 10 10 10 10 10 10 10 10 11 10 10 11 11 10 10 10 10 10 10 10 10 10 10 11 11 11 11 12 13 14 15 16 17 17 18 18 19 20 21
7 7 8 8 8 8 8 8 8 8 9 9 9 9 9 9 9 9 9 9 9 9 9 9 9 10 10 11 11 12 12 13 14 16 17 18 19 20 20 21 22 23 24
Wind_Direction
296 295 294 293 291 289 287 286 284 283 283 282 280 280 280 279 276 274 273 272 271 270 268 266 264 263 262 261 259 259 258 258 259 259 259 260 259 260 261 262 263 265 266
297 296 296 294 292 290 288 287 285 285 285 283 282 281 280 280 279 278 277 275 273 272 270 268 265 263 261 260 260 258 259 258 258 257 257 258 258 259 260 261 262 264 265
299 297 295 294 293 290 289 288 287 286 285 284 283 282 282 281 281 280 279 276 274 273 271 269 266 263 261 260 260 259 259 259 259 258 258 258 257 258 259 260 261 263 263
299 298 296 294 293 291 289 289 288 287 286 286 285 283 283 282 282 281 280 279 277 274 271 269 267 265 261 259 259 259 258 257 257 257 257 257 257 257 258 260 260 261 261
300 299 296 294 292 291 289 289 288 287 287 287 286 285 285 285 284 283 282 280 277 274 270 268 268 266 264 261 259 258 257 256 256 257 257 257 257 256 258 259 259 260 260
302 300 298 297 295 293 290 289 288 287 287 287 288 288 287 286 285 284 282 280 278 275 271 268 266 265 263 259 258 257 255 254 255 255 255 255 256 257 258 258 259 260 259
303 302 299 298 296 295 292 290 290 290 289 290 290 290 288 285 283 281 279 278 276 274 271 269 265 263 260 257 255 255 253 252 252 251 253 255 258 259 257 256 257 258 258
305 304 302 300 298 296 294 293 293 294 294 292 291 292 292 288 283 280 276 275 275 273 270 268 262 260 258 254 251 250 250 249 250 252 252 252 256 257 258 258 256 256 258
310 308 307 304 303 299 297 296 296 296 296 296 295 297 298 294 289 282 278 277 275 273 269 267 260 259 255 250 246 242 241 241 244 249 250 254 258 260 260 259 258 259 260
317 317 314 310 311 309 306 303 301 300 299 299 300 302 304 302 298 289 284 282 284 279 273 263 258 258 249 235 227 225 227 232 238 244 250 255 256 257 259 261 264 264 265
324 323 320 317 318 317 317 318 315 312 310 312 315 316 314 313 308 302 298 303 307 296 268 232 233 219 190 192 191 196 210 226 232 238 245 249 255 260 263 267 268 267 270
332 331 331 331 333 334 334 337 337 338 337 338 343 341 339 346 354 1 357 16 29 69 111 133 139 145 142 146 150 155 163 177 194 214 225 238 257 274 278 277 274 273 276
344 346 349 352 354 356 359 1 3 7 16 30 36 37 45 50 57 65 77 79 85 92 97 105 112 120 119 117 117 117 115 112 110 106 103 99 81 333 306 299 292 290 287
7 10 15 17 20 23 28 31 38 46 52 59 65 68 68 69 76 82 83 88 93 92 94 96 100 102 107 103 102 101 100 98 97 92 85 80 70 51 27 12 357 340 325
28 32 36 40 46 51 53 56 58 60 63 68 73 76 77 78 80 83 85 87 89 93 93 94 97 100 103 101 97 95 93 90 86 81 76 68 59 51 43 35 24 11 356
47 52 56 59 61 63 63 64 65 66 67 71 78 81 81 82 83 82 85 88 91 93 92 90 94 94 93 92 91 90 85 82 77 70 64 59 53 43 33 22 13 6 357
62 63 63 66 67 68 68 68 70 71 73 78 83 84 85 85 86 87 87 88 91 91 90 89 92 93 92 90 85 81 76 72 66 59 52 47 41 32 26 19 12 6 1
70 70 70 71 71 72 74 75 75 75 77 80 84 85 86 87 88 88 88 90 90 91 90 89 89 89 87 83 77 72 67 62 57 52 48 42 35 28 22 16 9 2 355
72 72 73 74 75 76 78 78 77 77 77 79 82 85 87 87 87 87 87 89 90 91 89 86 84 82 78 74 71 66 62 57 52 47 41 35 28 22 15 9 2 353 347
76 77 77 78 78 77 77 77 77 78 79 80 81 83 84 86 87 88 88 87 87 85 83 81 79 76 72 70 66 62 58 53 47 41 35 28 21 15 9 3 356 350 344
80 80 82 82 81 79 79 80 81 82 83 83 83 83 84 86 86 85 84 82 81 80 79 76 73 72 68 62 58 53 49 43 38 33 27 21 16 10 4 358 353 347 342
82 83 85 84 83 82 83 84 84 84 84 85 85 84 84 84 83 81 80 79 78 77 75 71 67 64 60 55 49 43 38 33 27 21 16 10 5 -0 355 351 346 342 338
84 84 85 87 87 87 87 87 85 84 84 84 84 84 82 81 80 79 78 76 74 71 69 66 61 57 52 46 41 35 29 22 17 12 7 2 358 354 349 345 340 336 333
89 90 91 91 90 90 89 87 85 84 85 85 84 82 81 80 78 75 73 70 68 65 62 58 54 49 44 39 32 26 20 14 9 5 1 357 354 350 346 342 338 336 333
96 97 96 93 92 91 90 88 88 87 86 84 81 79 78 78 76 72 69 65 62 58 54 51 47 43 38 32 26 20 15 9 3 359 355 351 348 345 342 340 337 335 333
103 103 102 101 99 97 94 91 89 87 85 83 80 77 74 72 70 67 64 60 57 53 48 43 37 30 24 19 13 8 2 358 354 351 348 345 343 341 339 337 335 333 330
Height
5778 5775 5772 5770 5768 5765 5764 5762 5760 5758 5757 5756 5755 5753 5752 5751 5751 5750 5749 5749 5749 5749 5749 5749 5750 5751 5752 5753 5754 5755 5756 5758 5759 5760 5760 5761 5762 5763 5764 5764 5765 5765 5765
5771 5768 5765 5762 5760 5758 5756 5754 5752 5751 5750 5748 5747 5746 5745 5744 5743 5742 5741 5741 5740 5740 5740 5741 5741 5742 5743 5744 5745 5746 5747 5749 5750 5751 5751 5752 5753 5754 5755 5756 5756 5756 5757
5763 5760 5758 5755 5752 5750 5749 5747 5745 5744 5742 5741 5740 5739 5738 5737 5736 5735 5734 5733 5733 5732 5732 5733 5733 5734 5735 5736 5737 5738 5739 5740 5741 5742 5743 5744 5744 5745 5746 5747 5747 5747 5748
5756 5753 5751 5748 5745 5743 5742 5740 5738 5737 5736 5734 5733 5732 5731 5730 5729 5727 5726 5726 5725 5725 5725 5725 5725 5726 5727 5728 5729 5730 5731 5732 5733 5734 5734 5735 5736 5737 5738 5738 5739 5739 5739
5749 5746 5743 5741 5739 5737 5735 5733 5731 5730 5729 5728 5726 5725 5724 5723 5722 5720 5719 5718 5718 5718 5718 5718 5718 5719 5719 5720 5721 5722 5723 5724 5725 5726 5727 5727 5728 5729 5730 5730 5731 5731 5731
5742 5739 5737 5734 5732 5730 5728 5727 5725 5724 5723 5721 5720 5719 5717 5716 5715 5714 5713 5712 5712 5711 5711 5711 5711 5712 5713 5713 5714 5715 5717 5718 5719 5719 5720 5721 5722 5722 5723 5724 5724 5724 5725
5736 5733 5731 5729 5726 5724 5723 5721 5720 5718 5717 5715 5714 5712 5711 5710 5709 5708 5707 5706 5706 5705 5705 5705 5706 5706 5707 5708 5709 5710 5711 5712 5713 5714 5715 5715 5716 5716 5717 5718 5718 5719 5719
5731 5728 5726 5724 5722 5720 5718 5716 5715 5713 5712 5710 5709 5707 5705 5704 5703 5702 5701 5701 5701 5700 5700 5700 5701 5701 5702 5703 5704 5705 5706 5707 5709 5710 5711 5711 5712 5712 5713 5714 5714 5714 5714
5727 5724 5722 5720 5717 5715 5713 5712 5710 5709 5707 5706 5704 5702 5701 5699 5698 5698 5697 5697 5697 5696 5696 5697 5697 5698 5698 5699 5700 5702 5703 5704 5705 5706 5707 5708 5708 5709 5709 5710 5710 5710 5710
5724 5721 5719 5716 5714 5712 5710 5708 5706 5705 5704 5702 5701 5699 5698 5696 5695 5695 5694 5694 5694 5694 5694 5694 5694 5695 5696 5697 5698 5699 5700 5702 5703 5704 5704 5705 5705 5706 5706 5706 5706 5706 5706
5721 5718 5716 5714 5711 5709 5707 5705 5704 5702 5701 5699 5698 5697 5696 5695 5694 5693 5693 5693 5693 5692 5692 5692 5693 5694 5694 5695 5697 5698 5699 5700 5701 5702 5702 5703 5703 5703 5704 5704 5703 5703 5703
5719 5717 5714 5712 5709 5707 5705 5704 5702 5700 5699 5698 5697 5696 5695 5694 5693 5693 5693 5692 5692 5692 5692 5692 5693 5694 5695 5695 5697 5697 5699 5699 5700 5701 5701 5702 5702 5702 5702 5702 5701 5701 5701
5718 5715 5713 5711 5708 5707 5705 5703 5701 5700 5698 5697 5696 5696 5695 5694 5694 5693 5693 5693 5693 5693 5693 5693 5694 5695 5695 5696 5697 5698 5699 5700 5700 5701 5701 5701 5702 5701 5701 5701 5700 5700 5699
5717 5715 5713 5711 5709 5707 5705 5703 5702 5701 5699 5698 5698 5697 5696 5696 5695 5695 5695 5695 5695 5695 5695 5696 5696 5696 5697 5698 5699 5700 5700 5701 5701 5702 5702 5702 5702 5701 5701 5700 5700 5699 5698
5718 5716 5714 5712 5710 5708 5707 5705 5704 5702 5701 5700 5700 5699 5698 5698 5697 5697 5697 5697 5698 5698 5699 5699 5699 5700 5700 5700 5701 5702 5702 5703 5703 5703 5703 5703 5702 5702 5701 5700 5700 5699 5698
5719 5717 5716 5714 5713 5711 5710 5708 5707 5705 5704 5703 5702 5702 5701 5701 5700 5700 5701 5701 5701 5701 5702 5702 5702 5702 5703 5704 5704 5705 5705 5705 5705 5704 5704 5704 5703 5702 5702 5701 5700 5699 5698
5722 5720 5719 5717 5716 5714 5713 5712 5710 5709 5707 5706 5706 5705 5705 5704 5704 5704 5704 5704 5705 5705 5705 5706 5706 5706 5707 5707 5708 5708 5707 5707 5707 5706 5705 5705 5704 5703 5702 5701 5700 5699 5698
5725 5723 5722 5721 5719 5718 5717 5716 5715 5713 5712 5711 5710 5710 5709 5709 5709 5709 5709 5709 5709 5709 5710 5710 5710 5711 5711 5711 5710 5710 5710 5709 5708 5708 5707 5706 5705 5704 5703 5701 5700 5699 5697
5729 5727 5726 5725 5723 5723 5721 5720 5719 5718 5717 5716 5715 5715 5714 5714 5714 5714 5714 5714 5714 5714 5714 5714 5714 5714 5714 5714 5713 5713 5712 5711 5710 5709 5708 5707 5706 5704 5703 5701 5700 5698 5697
5733 5731 5730 5729 5728 5727 5726 5725 5724 5724 5723 5722 5721 5721 5720 5719 5719 5719 5719 5719 5719 5719 5719 5719 5718 5718 5717 5717 5716 5715 5714 5713 5712 5711 5709 5708 5706 5705 5703 5701 5700 5698 5696
5736 5735 5734 5734 5733 5732 5731 5730 5730 5729 5728 5727 5727 5726 5726 5725 5724 5724 5724 5724 5724 5723 5723 5723 5722 5721 5720 5719 5718 5717 5716 5715 5714 5712 5711 5709 5707 5705 5703 5701 5699 5697 5695
5740 5740 5739 5738 5737 5737 5736 5736 5735 5734 5734 5733 5733 5732 5731 5730 5729 5729 5729 5728 5728 5727 5727 5726 5725 5724 5723 5722 5721 5720 5718 5717 5715 5713 5712 5710 5707 5705 5703 5700 5698 5695 5693
5744 5744 5743 5742 5742 5741 5741 5740 5740 5739 5738 5738 5737 5736 5736 5735 5734 5733 5733 5732 5732 5731 5730 5729 5728 5727 5725 5724 5723 5721 5720 5718 5716 5714 5712 5709 5707 5705 5702 5699 5696 5693 5690
5748 5747 5747 5747 5746 5746 5745 5744 5744 5743 5743 5742 5741 5741 5740 5739 5738 5737 5736 5736 5735 5734 5733 5731 5730 5729 5727 5726 5724 5722 5720 5718 5716 5714 5711 5709 5706 5703 5700 5697 5694 5691 5687
5751 5750 5750 5750 5749 5749 5749 5748 5748 5747 5746 5746 5745 5744 5743 5742 5741 5740 5739 5738 5737 5736 5735 5734 5732 5731 5729 5727 5725 5723 5721 5719 5716 5714 5711 5708 5705 5701 5698 5695 5691 5688 5684
5753 5753 5753 5753 5752 5752 5752 5751 5751 5750 5749 5748 5747 5747 5746 5745 5744 5743 5742 5741 5739 5738 5737 5735 5734 5732 5730 5728 5726 5724 5721 5718 5716 5713 5710 5706 5703 5699 5696 5692 5688 5684 5680